Tracking 19176 objects as of 27-May-2018
HD Live streaming from Space Station
objects crossing your sky now

COSMOS 2189

Track COSMOS 2189 now!
10-day predictions
COSMOS 2189 is classified as:


NORAD ID: 21978
Int'l Code: 1992-030C
Perigee: 1,423.3 km
Apogee: 1,486.7 km
Inclination: 74.0 °
Period: 114.8 minutes
Semi major axis: 7826 km
RCS: 0.6942 m2 (medium)
Launch date: June 3, 1992
Source: Commonwealth of Independent States (former USSR) (CIS)
Launch site: PLESETSK MISSILE AND SPACE COMPLEX (PKMTR)
aabbcc
Your satellite tracking list
Your tracking list is empty




NASA's NSSDC Master Catalog

Two Line Element Set (TLE):
1 21978U 92030C   18146.47496334 +.00000007 +00000-0 +14205-3 0  9993
2 21978 074.0002 150.3988 0040497 170.7947 302.5744 12.53980247189122
Source of the keplerian elements: AFSPC